Regional Weather Roundup
Issued by NWS

Home | Current Version | Previous Version | Graphics & Text | Print | Product List | Glossary On
Versions: 1 2 3 4 5 6 7 8 9 10 11 12 13 14 15 16 17 18 19 20 21 22 23 24 25 26 27
000
ASUS45 KBOU 190307
RWRCO

WEATHER ROUNDUP FOR COLORADO
NATIONAL WEATHER SERVICE DENVER/BOULDER CO
900 PM MDT WED OCT 18 2017

NOTE: "FAIR" INDICATES FEW OR NO CLOUDS BELOW 12000 FEET WITH NO
SIGNIFICANT WEATHER AND/OR OBSTRUCTIONS TO VISIBILITY.

COZ001>005-013-030-031-190400-
...NORTHWEST COLORADO...

CITY           SKY/WX    TMP DP  RH WIND       PRES   REMARKS
CRAIG          FAIR      37  24  59 CALM      30.20F
HAYDEN         FAIR      44  17  33 E6        30.23F
MEEKER         FAIR      45  19  35 CALM      30.21S
RABBIT EARS PA FAIR      43   9  24 W6        30.43F
STEAMBOAT SPGS FAIR      46  14  28 CALM      30.24S
WALDEN         NOT AVBL
$$

COZ006>008-011-190400-
...WEST CENTRAL VALLEYS...

CITY           SKY/WX    TMP DP  RH WIND       PRES   REMARKS
GRAND JUNCTION FAIR      51  18  27 SE6       30.12F
MONTROSE       FAIR      48  23  37 SE10      30.20S
EAGLE          FAIR      44  16  32 SE5       30.25S
RIFLE          FAIR      53  17  24 SE7       30.17S
DELTA          FAIR      52  19  27 NE5       30.16R
NUCLA          FAIR      54  10  17 E12       30.22R
$$

COZ017>023-064>068-190400-
...SOUTHWEST COLORADO...

CITY           SKY/WX    TMP DP  RH WIND       PRES   REMARKS
DURANGO        FAIR      49  23  36 N6        30.22R
CORTEZ         FAIR      49  25  39 E7        30.18S
PAGOSA SPRINGS FAIR      45  15  30 CALM      30.29S
TELLURIDE      NOT AVBL
WOLF CREEK PAS FAIR      39  10  30 SW8       30.57F
$$

COZ009-010-012-014-032>034-037-058>063-190400-
...CENTRAL COLORADO...

CITY           SKY/WX    TMP DP  RH WIND       PRES   REMARKS
ASPEN          FAIR      44  15  31 VRB7      30.30S
BUENA VISTA    FAIR      41  13  31 NW8       30.31S
COPPER MTN     FAIR      45   0  15 NW5       30.53F
BERTHOUD PASS  FAIR      36  28  75 W14       30.55F
COTTONWOOD PAS FAIR      55  -2   9 S5        30.41S
GUNNISON       FAIR      38  18  44 CALM      30.30S
KREMMLING      FAIR      43  14  31 CALM      30.29S
LEADVILLE      FAIR      36   7  29 NE10      30.40F
MONARCH PASS   FAIR      41 -11  10 SW8       30.62S
SALIDA         NOT AVBL
SUNLIGHT       FAIR      43  -6  13 NW3       30.48F
WILKERSON PASS FAIR      43  -4  14 S13       30.52S
$$

COZ069>075-190400-
...SAN LUIS VALLEY/SANGRE DE CRISTO MOUNTAINS...

CITY           SKY/WX    TMP DP  RH WIND       PRES   REMARKS
ALAMOSA        FAIR      36  15  42 CALM      30.28R
DEL NORTE      FAIR      42  16  34 W12       30.31S
LA VETA PASS   FAIR      46   9  21 CALM      30.55S
SAGUACHE       FAIR      41  14  33 NW9       30.31S
$$

COZ035-036-038>040-190400-
...NORTHERN COLORADO FRONT RANGE...

CITY           SKY/WX    TMP DP  RH WIND       PRES   REMARKS
DENVER INTL AP FAIR      47  22  37 S13       30.13F
DMNS CITY PARK   N/A     57  22  25 S6        30.14S
AURORA         PTCLDY    52  20  28 SW9       30.16S
FRONT RANGE AP PTCLDY    48  27  43 SE8       30.16S
ERIE MUNI ARPT FAIR      51  24  35 S3        30.18S
BOULDER MUN AP FAIR      54  27  35 CALM      30.13S
CENTENNIAL     FAIR      57  17  21 S9        30.17S
BROOMFIELD     PTCLDY    59  16  18 W3        30.15F
FORT COLLINS   FAIR      56  24  29 SE6       30.14S
LONGMONT       FAIR      54  25  31 W6        30.14S
$$

COZ041-046-047-076>085-087-088-190400-
...PIKES PEAK/PALMER DIVIDE AND SOUTHERN FOOTHILLS...

CITY           SKY/WX    TMP DP  RH WIND       PRES   REMARKS
COLO. SPRINGS  FAIR      58  20  22 CALM      30.23R
A. F. ACADEMY  FAIR      56  17  22 SE8       30.23S
SCHRIEVER AFB  FAIR      55  21  26 E6        30.22S
CHEYENNE MTN   NOT AVBL
ELLICOTT       FAIR     N/A N/A N/A SE8       30.20S
FALCON         FAIR      52  19  27 SE3       30.26S
FORT CARSON    FAIR      58  17  20 CALM      30.20R
LIMON          FAIR      46  22  38 SE3       30.18S
MONUMENT HILL  FAIR      50  18  27 S14       30.26S
CANON CITY     CLEAR     57  18  21 N9        30.15F
WALSENBURG     FAIR      50  19  29 W8        30.20S
TRINIDAD       FAIR      47  30  51 W9        30.19R HAZE
$$

COZ042>045-048>051-090-091-190400-
...NORTHEAST COLORADO...

CITY           SKY/WX    TMP DP  RH WIND       PRES   REMARKS
GREELEY ARPT   FAIR      47  30  51 E3        30.12S
AKRON          FAIR      51  26  37 SE12      30.14R
BURLINGTON     FAIR      52  30  43 E10       30.14R
WRAY           FAIR      50  30  46 E5        30.11F
YUMA           FAIR      45  30  57 SE6       30.12S
STERLING       NOT AVBL
HOLYOKE        FAIR      48  32  53 SE7       30.11S
FORT MORGAN    FAIR      51  21  31 E8        30.13R
$$

COZ086-089-092>099-190400-
...SOUTHEAST COLORADO...

CITY           SKY/WX    TMP DP  RH WIND       PRES   REMARKS
PUEBLO         FAIR      61  31  32 SE3       30.12R
LA JUNTA       FAIR      62  28  27 SE5       30.10S
LAMAR          FAIR      54  26  34 E9        30.07S
SPRINGFIELD      N/A     51  35  54 CALM      30.11S
$$




USA.gov is the U.S. government's official web portal to all federal, state and local government web resources and services.